• In Spain
  • List of Countries
  • For 7 days
  • Water Temperature
  • Satellite Maps
  • Weather Map
  • Weather Widgets
  • user-avatar
    Login

    Hourly Weather Quarteira

    Today, 24 November, Friday

    Time Temperature Precipitation Wind Pressure Humidity
    00:00 +16°C° 0 mm 2 mps 763 mmHg 95%
    01:00 +16°C° 0 mm 2 mps 762 mmHg 94%
    02:00 +16°C° 0 mm 2 mps 762 mmHg 93%
    03:00 +15°C° 0 mm 2 mps 762 mmHg 92%
    04:00 +14°C° 0 mm 3 mps 762 mmHg 91%
    05:00 +14°C° 0 mm 3 mps 762 mmHg 91%
    06:00 +16°C° 0 mm 3 mps 763 mmHg 85%
    07:00 +17°C° 0 mm 3 mps 763 mmHg 80%
    08:00 +18°C° 0 mm 3 mps 763 mmHg 75%
    09:00 +20°C° 0 mm 4 mps 763 mmHg 63%
    10:00 +22°C° 0 mm 4 mps 763 mmHg 51%
    11:00 +25°C° 0 mm 5 mps 762 mmHg 39%
    12:00 +26°C° 0 mm 4 mps 762 mmHg 36%
    13:00 +26°C° 0 mm 4 mps 762 mmHg 34%
    14:00 +26°C° 0 mm 4 mps 762 mmHg 31%
    15:00 +23°C° 0 mm 4 mps 762 mmHg 40%
    16:00 +20°C° 0 mm 3 mps 762 mmHg 50%
    17:00 +18°C° 0 mm 3 mps 762 mmHg 59%
    18:00 +17°C° 0 mm 3 mps 762 mmHg 65%
    19:00 +17°C° 0 mm 3 mps 762 mmHg 70%
    20:00 +16°C° 0 mm 2 mps 763 mmHg 76%
    21:00 +16°C° 0 mm 2 mps 763 mmHg 77%
    22:00 +15°C° 0 mm 2 mps 763 mmHg 78%
    23:00 +15°C° 0 mm 2 mps 763 mmHg 80%

    Tomorrow, 25 November, Saturday

    Time Temperature Precipitation Wind Pressure Humidity
    00:00 +15°C° 0 mm 2 mps 763 mmHg 80%
    01:00 +15°C° 0 mm 2 mps 762 mmHg 81%
    02:00 +15°C° 0 mm 1 mps 762 mmHg 81%
    03:00 +15°C° 0 mm 2 mps 762 mmHg 81%
    04:00 +15°C° 0 mm 2 mps 762 mmHg 81%
    05:00 +15°C° 0 mm 2 mps 763 mmHg 81%
    06:00 +16°C° 0 mm 2 mps 763 mmHg 76%
    07:00 +17°C° 0 mm 2 mps 763 mmHg 71%
    08:00 +18°C° 0 mm 2 mps 763 mmHg 66%
    09:00 +20°C° 0 mm 2 mps 764 mmHg 59%
    10:00 +23°C° 0 mm 2 mps 764 mmHg 52%
    11:00 +25°C° 0 mm 2 mps 764 mmHg 44%
    12:00 +25°C° 0 mm 2 mps 764 mmHg 43%
    13:00 +25°C° 0 mm 2 mps 763 mmHg 42%
    14:00 +26°C° 0 mm 2 mps 763 mmHg 40%
    15:00 +24°C° 0 mm 1 mps 763 mmHg 48%
    16:00 +22°C° 0 mm 1 mps 764 mmHg 55%
    17:00 +20°C° 0 mm 1 mps 764 mmHg 62%
    18:00 +20°C° 0 mm 1 mps 764 mmHg 64%
    19:00 +18°C° 0 mm 2 mps 764 mmHg 66%
    20:00 +18°C° 0 mm 2 mps 765 mmHg 68%
    21:00 +17°C° 0 mm 2 mps 765 mmHg 69%
    22:00 +17°C° 0 mm 3 mps 765 mmHg 69%
    23:00 +17°C° 0 mm 4 mps 765 mmHg 69%

    Day after tomorrow, 26 November, Sunday

    Time Temperature Precipitation Wind Pressure Humidity
    00:00 +17°C° 0 mm 4 mps 765 mmHg 68%
    01:00 +18°C° 0 mm 4 mps 765 mmHg 66%
    02:00 +18°C° 0 mm 4 mps 765 mmHg 64%
    03:00 +18°C° 0 mm 4 mps 765 mmHg 64%
    04:00 +18°C° 0 mm 4 mps 765 mmHg 64%
    05:00 +17°C° 0 mm 3 mps 765 mmHg 63%
    06:00 +18°C° 0 mm 3 mps 766 mmHg 63%
    07:00 +18°C° 0 mm 3 mps 766 mmHg 62%
    08:00 +18°C° 0 mm 3 mps 767 mmHg 61%
    09:00 +19°C° 0 mm 3 mps 767 mmHg 57%
    10:00 +20°C° 0 mm 4 mps 767 mmHg 53%
    11:00 +21°C° 0 mm 4 mps 767 mmHg 50%
    12:00 +22°C° 0 mm 4 mps 767 mmHg 47%
    13:00 +23°C° 0 mm 4 mps 766 mmHg 45%
    14:00 +23°C° 0 mm 5 mps 766 mmHg 42%
    15:00 +22°C° 0 mm 4 mps 766 mmHg 48%
    16:00 +20°C° 0 mm 4 mps 766 mmHg 54%
    17:00 +18°C° 0 mm 3 mps 766 mmHg 60%
    18:00 +18°C° 0 mm 3 mps 767 mmHg 60%
    19:00 +18°C° 0 mm 3 mps 767 mmHg 61%
    20:00 +18°C° 0 mm 3 mps 767 mmHg 62%
    21:00 +18°C° 0 mm 3 mps 767 mmHg 61%
    22:00 +18°C° 0 mm 3 mps 767 mmHg 61%
    23:00 +18°C° 0 mm 4 mps 767 mmHg 60%

    27 November, Monday

    Time Temperature Precipitation Wind Pressure Humidity
    00:00 +18°C° 0 mm 4 mps 767 mmHg 63%
    01:00 +18°C° 0 mm 4 mps 766 mmHg 66%
    02:00 +17°C° 0 mm 4 mps 766 mmHg 69%
    03:00 +16°C° 0.1 mm 5 mps 766 mmHg 70%
    04:00 +16°C° 0.1 mm 5 mps 766 mmHg 72%
    05:00 +16°C° 0.1 mm 5 mps 766 mmHg 74%
    06:00 +16°C° 1.2 mm 5 mps 766 mmHg 77%
    07:00 +16°C° 1.2 mm 5 mps 767 mmHg 81%
    08:00 +17°C° 1.2 mm 4 mps 767 mmHg 85%
    09:00 +16°C° 0.5 mm 5 mps 767 mmHg 83%
    10:00 +16°C° 0.5 mm 5 mps 767 mmHg 80%
    11:00 +17°C° 0.5 mm 6 mps 767 mmHg 78%
    12:00 +17°C° 0 mm 5 mps 766 mmHg 76%
    13:00 +17°C° 0 mm 5 mps 766 mmHg 74%
    14:00 +19°C° 0 mm 5 mps 765 mmHg 72%
    15:00 +17°C° 0 mm 5 mps 765 mmHg 76%
    16:00 +16°C° 0 mm 5 mps 765 mmHg 80%
    17:00 +16°C° 0 mm 5 mps 765 mmHg 84%
    18:00 +15°C° 0 mm 5 mps 765 mmHg 86%
    19:00 +15°C° 0 mm 5 mps 765 mmHg 87%
    20:00 +15°C° 0 mm 5 mps 765 mmHg 88%
    21:00 +15°C° 0 mm 5 mps 765 mmHg 89%
    22:00 +15°C° 0 mm 5 mps 764 mmHg 89%
    23:00 +15°C° 0 mm 5 mps 764 mmHg 90%

    28 November, Tuesday

    Time Temperature Precipitation Wind Pressure Humidity
    00:00 +16°C° 0 mm 5 mps 764 mmHg 91%
    01:00 +16°C° 0 mm 5 mps 763 mmHg 92%
    02:00 +16°C° 0 mm 5 mps 763 mmHg 92%
    03:00 +15°C° 0 mm 5 mps 763 mmHg 93%
    04:00 +15°C° 0 mm 5 mps 762 mmHg 93%
    05:00 +15°C° 0 mm 5 mps 762 mmHg 94%
    06:00 +16°C° 0.1 mm 5 mps 762 mmHg 92%
    07:00 +16°C° 0.1 mm 5 mps 762 mmHg 90%
    08:00 +17°C° 0.1 mm 6 mps 762 mmHg 88%
    09:00 +19°C° 0.1 mm 6 mps 761 mmHg 83%
    10:00 +20°C° 0.1 mm 6 mps 761 mmHg 78%
    11:00 +21°C° 0.1 mm 6 mps 760 mmHg 73%
    12:00 +22°C° 0.3 mm 5 mps 760 mmHg 71%
    13:00 +22°C° 0.3 mm 5 mps 759 mmHg 70%
    14:00 +22°C° 0.3 mm 5 mps 758 mmHg 68%
    15:00 +21°C° 0.4 mm 5 mps 758 mmHg 75%
    16:00 +20°C° 0.4 mm 5 mps 758 mmHg 82%
    17:00 +18°C° 0.4 mm 4 mps 757 mmHg 89%
    18:00 +18°C° 0.8 mm 4 mps 757 mmHg 91%
    19:00 +17°C° 0.8 mm 5 mps 757 mmHg 93%
    20:00 +16°C° 0.8 mm 5 mps 757 mmHg 95%
    21:00 +16°C° 0.6 mm 5 mps 757 mmHg 95%
    22:00 +16°C° 0.6 mm 5 mps 756 mmHg 95%
    23:00 +16°C° 0.6 mm 5 mps 756 mmHg 96%

    29 November, Wednesday

    Time Temperature Precipitation Wind Pressure Humidity
    00:00 +16°C° 0.2 mm 5 mps 756 mmHg 96%
    01:00 +16°C° 0.2 mm 5 mps 755 mmHg 96%
    02:00 +16°C° 0.2 mm 6 mps 755 mmHg 96%
    03:00 +15°C° 0.1 mm 5 mps 755 mmHg 96%
    04:00 +15°C° 0.1 mm 5 mps 755 mmHg 97%
    05:00 +15°C° 0.1 mm 5 mps 754 mmHg 97%
    06:00 +15°C° 0.1 mm 5 mps 755 mmHg 95%
    07:00 +16°C° 0.1 mm 5 mps 755 mmHg 93%
    08:00 +16°C° 0.1 mm 5 mps 755 mmHg 91%
    09:00 +17°C° 0 mm 5 mps 755 mmHg 88%
    10:00 +17°C° 0 mm 5 mps 755 mmHg 84%
    11:00 +17°C° 0 mm 5 mps 755 mmHg 81%
    12:00 +19°C° 0 mm 5 mps 755 mmHg 78%
    13:00 +19°C° 0 mm 5 mps 755 mmHg 76%
    14:00 +19°C° 0 mm 5 mps 755 mmHg 73%
    15:00 +18°C° 0 mm 4 mps 755 mmHg 74%
    16:00 +17°C° 0 mm 4 mps 756 mmHg 76%
    17:00 +15°C° 0 mm 4 mps 756 mmHg 77%
    18:00 +14°C° 0 mm 4 mps 756 mmHg 76%
    19:00 +13°C° 0 mm 4 mps 757 mmHg 75%
    20:00 +12°C° 0 mm 4 mps 757 mmHg 75%
    21:00 +11°C° 0 mm 4 mps 758 mmHg 78%
    22:00 +11°C° 0 mm 4 mps 758 mmHg 81%
    23:00 +10°C° 0 mm 4 mps 758 mmHg 84%
    Show more